Muscle Shoals, AL

2:49 AM CDT on June 29, 2017 (GMT -0500)
Northwest Alabama Regional

Weather History for KMSL - July, 2013

Change the Weather History Date:

Wednesday, July 24, 2013

  Actual Average Record
Temperature  
Mean Temperature 80 °F 81 °F  
Max Temperature 88 °F 91 °F 102 °F (1924)
Min Temperature 71 °F 70 °F 56 °F (1904)
Degree Days  
Heating Degree Days 0 0  
Month to date heating degree days 0 0  
Since 1 June heating degree days 0 1  
Since 1 July heating degree days 0 0  
Cooling Degree Days 15 16  
Month to date cooling degree days 335 370  
Year to date cooling degree days 981 976  
Since 1 June cooling degree days 741 732  
Growing Degree Days 28 (Base 50)    
Moisture  
Dew Point 71 °F    
Average Humidity 78    
Maximum Humidity 90    
Minimum Humidity 65    
Precipitation  
Precipitation T in 0.14 in 1.53 in (1959)
Month to date precipitation 5.88 3.48  
Year to date precipitation 35.47 31.74  
Snow  
Snow 0.00 in - - ()
Month to date snowfall 0.0  
Since 1 June snowfall 0.0  
Since 1 July snowfall 0.0  
Snow Depth 0.00 in    
Sea Level Pressure  
Sea Level Pressure 29.89 in    
Wind  
Wind Speed 3 mph (NNW)    
Max Wind Speed 9 mph    
Max Gust Speed 13 mph    
Visibility 10 miles    
Events Thunderstorm    
T = Trace of Precipitation, MM = Missing Value Source: NWS Daily Summary

Daily Weather History Graph

Daily Weather History Graph

Search for Another Location

Airport or City:

Trip Planner

Search our weather history database for the weather conditions in past years. The results will help you decide how hot, cold, wet, or windy it might be!

Date:

Astronomy

Jul. 24, 2013 Rise Set
Actual Time 5:54 AM CDT 7:58 PM CDT
Civil Twilight 5:26 AM CDT 8:26 PM CDT
Nautical Twilight 4:52 AM CDT 9:01 PM CDT
Astronomical Twilight 4:14 AM CDT 9:38 PM CDT
Moon 9:13 PM CDT (7/24) 8:06 AM CDT (7/24)
Length of Visible Light 15h 00m
Length of Day
14h 04m
Waning Gibbous, 94% of the Moon is Illuminated
Jul 24
Waning Gibbous
Jul 29
Last Quarter
Aug 6
New
Aug 14
First Quarter
Aug 20
Full

Hourly Weather History & Observations

Time (CDT) Temp. Heat Index Dew Point Humidity Pressure Visibility Wind Dir Wind Speed Gust Speed Precip Events Conditions
12:53 AM 71.1 °F - 68.0 °F 90% 29.88 in 10.0 mi Calm Calm - N/A   Partly Cloudy
1:53 AM 71.1 °F - 68.0 °F 90% 29.87 in 10.0 mi ESE 3.5 mph - N/A   Partly Cloudy
2:00 AM 71.6 °F - 69.8 °F 94% 29.88 in 10.0 mi Calm Calm - N/A Thunderstorm Scattered Clouds
2:25 AM 71.6 °F - 69.8 °F 94% 29.88 in 10.0 mi Variable 3.5 mph - N/A Thunderstorm Mostly Cloudy
2:35 AM 71.6 °F - 69.8 °F 94% 29.88 in 10.0 mi ENE 3.5 mph - N/A Thunderstorm Overcast
2:53 AM 73.0 °F - 69.1 °F 87% 29.87 in 10.0 mi North 3.5 mph - N/A Thunderstorm Overcast
3:14 AM 73.4 °F - 69.8 °F 88% 29.90 in 10.0 mi East 6.9 mph - N/A Thunderstorm Thunderstorm
3:36 AM 75.2 °F - 69.8 °F 83% 29.88 in 10.0 mi South 3.5 mph - 0.00 in Thunderstorm Mostly Cloudy
3:44 AM 75.2 °F - 69.8 °F 83% 29.88 in 10.0 mi West 3.5 mph - 0.00 in Thunderstorm Mostly Cloudy
3:53 AM 73.9 °F - 70.0 °F 87% 29.87 in 10.0 mi Calm Calm - 0.00 in Thunderstorm Mostly Cloudy
4:02 AM 73.4 °F - 69.8 °F 88% 29.89 in 10.0 mi Calm Calm - N/A   Mostly Cloudy
4:53 AM 73.9 °F - 70.0 °F 87% 29.86 in 10.0 mi Calm Calm - N/A   Mostly Cloudy
5:32 AM 73.4 °F - 69.8 °F 88% 29.88 in 10.0 mi Calm Calm - N/A   Mostly Cloudy
5:53 AM 73.9 °F - 70.0 °F 87% 29.87 in 10.0 mi Calm Calm - N/A   Overcast
6:08 AM 73.4 °F - 69.8 °F 88% 29.89 in 10.0 mi Calm Calm - N/A   Overcast
6:34 AM 73.4 °F - 69.8 °F 88% 29.89 in 10.0 mi Calm Calm - N/A   Scattered Clouds
6:53 AM 73.9 °F - 70.0 °F 87% 29.88 in 10.0 mi Calm Calm - N/A   Clear
7:14 AM 73.4 °F - 69.8 °F 88% 29.90 in 10.0 mi SSW 3.5 mph - N/A   Mostly Cloudy
7:33 AM 75.2 °F - 71.6 °F 89% 29.90 in 10.0 mi WSW 3.5 mph - N/A   Mostly Cloudy
7:53 AM 75.0 °F - 71.1 °F 87% 29.89 in 10.0 mi WSW 4.6 mph - N/A   Mostly Cloudy
8:53 AM 75.9 °F - 72.0 °F 87% 29.91 in 10.0 mi North 4.6 mph - N/A   Overcast
9:53 AM 77.0 °F - 72.0 °F 84% 29.91 in 10.0 mi Variable 3.5 mph - N/A   Overcast
10:53 AM 80.1 °F 84.2 °F 73.0 °F 79% 29.92 in 10.0 mi NNW 4.6 mph - N/A   Overcast
11:53 AM 84.0 °F 89.6 °F 72.0 °F 67% 29.91 in 10.0 mi NNE 5.8 mph - N/A   Mostly Cloudy
12:00 PM 84.2 °F 89.6 °F 71.6 °F 66% 29.93 in 10.0 mi NNE 5.8 mph - N/A   Scattered Clouds
12:33 PM 82.4 °F 87.2 °F 71.6 °F 70% 29.93 in 10.0 mi NNE 3.5 mph - N/A   Mostly Cloudy
12:53 PM 82.9 °F 88.0 °F 72.0 °F 69% 29.91 in 10.0 mi East 6.9 mph - N/A   Mostly Cloudy
1:17 PM 84.2 °F 89.6 °F 71.6 °F 66% 29.92 in 10.0 mi East 4.6 mph - N/A   Scattered Clouds
1:53 PM 82.9 °F 87.0 °F 70.0 °F 65% 29.90 in 10.0 mi Calm Calm - N/A   Scattered Clouds
2:53 PM 84.0 °F 89.0 °F 71.1 °F 65% 29.88 in 10.0 mi Calm Calm - N/A   Clear
3:53 PM 84.0 °F 89.6 °F 72.0 °F 67% 29.88 in 10.0 mi NNW 4.6 mph - N/A   Partly Cloudy
4:53 PM 82.9 °F 89.4 °F 73.9 °F 74% 29.87 in 10.0 mi Calm Calm - 0.00 in   Mostly Cloudy
5:21 PM 84.2 °F 90.9 °F 73.4 °F 70% 29.88 in 10.0 mi WNW 5.8 mph - N/A   Overcast
5:39 PM 84.2 °F 90.9 °F 73.4 °F 70% 29.88 in 10.0 mi NW 5.8 mph - N/A   Overcast
5:53 PM 82.9 °F 88.0 °F 72.0 °F 69% 29.86 in 10.0 mi NNW 5.8 mph - N/A   Scattered Clouds
6:53 PM 82.9 °F 88.0 °F 72.0 °F 69% 29.88 in 10.0 mi NNW 4.6 mph - N/A   Partly Cloudy
7:53 PM 78.1 °F - 71.1 °F 79% 29.90 in 10.0 mi Calm Calm - N/A   Clear
8:53 PM 75.9 °F - 71.1 °F 85% 29.90 in 10.0 mi Calm Calm - N/A   Clear
9:53 PM 75.0 °F - 71.1 °F 87% 29.91 in 10.0 mi NW 3.5 mph - N/A   Clear
10:53 PM 75.0 °F - 71.1 °F 87% 29.92 in 10.0 mi NW 3.5 mph - N/A   Scattered Clouds
11:53 PM 75.9 °F - 69.1 °F 79% 29.93 in 10.0 mi North 5.8 mph - N/A   Scattered Clouds